[[{"header":{"parameterUnit":"m.s-1","parameterCategory":1,"la1":30.2991,"la2":30.254,"lo1":-89.0895,"lo2":-89.0444,"dy":0.0017,"dx":0.0017,"nx":28,"ny":28,"refTime":"2024-08-27T09:00:00:Z","depth":0,"parameterNumber":2,"parameterNumberName":"U-component_of_WINDS"},"data":[0,0,0,0,0,0,0,0,0,0,0,0,0,0,0,0,0,0,0,0,0,0,0,0,0,0,0,0,0,0,0,0,0,0,0,0,0,0,0,0,0,0,0,0,0,0,0,0,0,0,0,0,0,0,0,0,0,0,-3.4422,-3.4423,0,-3.4477,-3.4478,-3.4479,-3.4411,-3.4408,-3.4406,-3.4403,-3.4458,-3.4462,-3.4466,0,0,0,0,0,0,0,0,0,0,0,0,0,-3.4257,-3.426,-3.4422,-3.4423,-3.4424,-3.4477,-3.4478,-3.4479,-3.4411,-3.4408,-3.4405,-3.4402,-3.4457,-3.4462,-3.4466,0,0,0,0,0,0,0,0,0,0,0,0,0,-3.4322,-3.4262,-3.4422,-3.4396,-3.4395,-3.4477,-3.4478,-3.4479,-3.4412,-3.4408,-3.4404,-3.4401,-3.4456,-3.4461,-3.4467,-3.4577,0,0,-3.4484,-3.4487,0,0,0,0,0,0,0,0,-3.4319,-3.4328,-3.4399,-3.4398,-3.4396,-3.4433,-3.444,-3.4512,-3.4413,-3.4405,-3.4403,-3.4399,-3.4453,-3.4459,-3.4477,-3.4579,-3.4582,-3.4485,-3.4488,-3.449,-3.4492,0,0,0,0,0,0,0,-3.4314,-3.4325,-3.4444,-3.4401,-3.4399,-3.4382,-3.4387,-3.4453,-3.4449,-3.4406,-3.4401,-3.4408,-3.4451,-3.4472,-3.4478,-3.4582,-3.4484,-3.4489,-3.4493,-3.4495,-3.4777,-3.4781,0,0,0,0,0,0,-3.4313,-3.4322,-3.4442,-3.4446,-3.4348,-3.4388,-3.4393,-3.4425,-3.4448,-3.4448,-3.4411,-3.4405,-3.4464,-3.4471,-3.448,-3.4609,-3.449,-3.4496,-3.4499,-3.4773,-3.4778,-3.4782,0,0,0,0,0,0,-3.4309,-3.4324,-3.444,-3.4383,-3.4396,-3.4394,-3.4431,-3.4428,-3.4448,-3.4453,-3.4452,-3.4433,-3.4461,-3.4472,-3.4553,-3.461,-3.4498,-3.4503,-3.4768,-3.4774,-3.478,-3.4869,0,0,0,0,0,0,-3.4305,-3.4323,-3.4365,-3.4384,-3.4399,-3.4513,-3.4434,-3.4432,-3.4459,-3.4451,-3.4473,-3.4473,-3.4459,-3.4545,-3.4559,-3.4615,-3.4508,-3.4763,-3.4771,-3.4778,-3.4861,-3.4877,-3.4891,0,0,0,0,0,-3.4299,-3.4388,-3.4368,-3.4383,-3.4452,-3.4516,-3.4525,-3.4508,-3.4464,-3.4505,-3.4508,-3.4472,-3.4602,-3.4554,-3.4569,-3.4628,-3.4759,-3.4769,-3.4778,-3.4854,-3.4874,-3.4891,0,0,0,0,0,0,-3.4375,-3.439,-3.4368,-3.4465,-3.449,-3.4505,-3.4557,-3.453,-3.4567,-3.4558,-3.4535,-3.454,-3.4627,-3.4636,-3.4582,-3.4736,-3.4673,-3.4686,-3.4726,-3.4745,-3.476,-3.4755,-3.4513,0,0,0,0,0,-3.4403,-3.4455,-3.4465,-3.455,-3.4564,-3.4559,-3.4586,-3.4571,-3.4595,-3.4605,-3.4614,-3.4639,-3.4685,-3.4716,-3.4759,-3.4863,-3.4866,-3.4911,-3.4926,-3.4939,-3.4949,-3.5004,-3.5024,-3.4812,-3.4812,-3.4812,0,0,-3.4461,-3.4476,-3.451,-3.4565,-3.4583,-3.4636,-3.4568,-3.4627,-3.4666,-3.4614,-3.4691,-3.4699,-3.4725,-3.4818,-3.4859,-3.4828,-3.5009,-3.495,-3.496,-3.4964,-3.5015,-3.5035,-3.5053,-3.4819,-3.4817,-3.4816,0,0,-3.4594,-3.4612,-3.4683,-3.4703,-3.4731,-3.4727,-3.4744,-3.4764,-3.4767,-3.4844,-3.4806,-3.4852,-3.4933,-3.4953,-3.4974,-3.5116,-3.5084,-3.5131,-3.521,-3.5263,-3.528,-3.5294,-3.5344,-3.5362,-3.5142,-3.5142,-3.5142,0,-3.4663,-3.4742,-3.4724,-3.4786,-3.4811,-3.4768,-3.484,-3.486,-3.49,-3.4918,-3.4883,-3.4983,-3.4998,-3.5094,-3.5129,-3.5148,-3.5167,-3.5127,-3.5279,-3.5293,-3.5307,-3.5353,-3.5372,-3.5147,-3.5147,-3.5146,-3.5146,0,-3.4824,-3.488,-3.4935,-3.4975,-3.5007,-3.5074,-3.5065,-3.51,-3.5082,-3.5082,-3.5161,-3.5178,-3.5223,-3.5246,-3.5229,-3.534,-3.532,-3.5283,-3.5219,-3.5333,-3.5376,-3.5394,-3.5155,-3.5153,-3.5152,-3.515,0,0,-3.5004,-3.5035,-3.5055,-3.5072,-3.5101,-3.5143,-3.5208,-3.5253,-3.5282,-3.5312,-3.5365,-3.5435,-3.5401,-3.5425,-3.5411,-3.5458,-3.5568,-3.5415,-3.5415,-3.5441,-3.569,-3.5716,-3.5737,-3.5548,-3.5551,-3.5554,-3.5687,0,-3.5136,-3.5249,-3.5235,-3.5342,-3.5393,-3.5354,-3.541,-3.5434,-3.5436,-3.5479,-3.5481,-3.553,-3.5482,-3.5496,-3.5542,-3.5545,-3.5617,-3.5536,-3.5596,-3.5598,-3.5588,-3.576,-3.5788,-3.5912,-3.5704,-3.5707,-3.5709,0,-3.5304,-3.534,-3.5453,-3.5474,-3.5494,-3.5546,-3.5585,-3.5628,-3.5653,-3.5651,-3.5679,-3.5656,-3.5721,-3.5659,-3.5747,-3.5692,-3.5716,-3.5722,-3.5727,-3.573,-3.5659,-3.5766,-3.5952,-3.597,-3.5736,-3.5734,-3.5732,0,-3.5422,-3.5499,-3.5576,-3.5593,-3.5619,-3.5656,-3.5668,-3.569,-3.5718,-3.5754,-3.5771,-3.5814,-3.5836,-3.587,-3.5859,-3.5815,-3.595,-3.5886,-3.5949,-3.5949,-3.5977,-3.5975,-3.6168,-3.5997,-3.5997,-3.5996,-3.5996,0,-3.5569,-3.5639,-3.5629,-3.5677,-3.5754,-3.5738,-3.5815,-3.5823,-3.5843,-3.5891,-3.586,-3.5905,-3.589,-3.5935,-3.5927,-3.6001,-3.6012,-3.6012,-3.6008,-3.6013,-3.6013,-3.6027,-3.6017,-3.6001,-3.6,-3.5999,-3.5998,0,-3.5712,-3.5709,-3.579,-3.5809,-3.5815,-3.5871,-3.5887,-3.5931,-3.5932,-3.5993,-3.6006,-3.6007,-3.6058,-3.6051,-3.6108,-3.6103,-3.6195,-3.6182,-3.6186,-3.6182,-3.6244,-3.6238,-3.6451,-3.6477,-3.6292,-3.6293,-3.6295,0,-3.5805,-3.5858,-3.5883,-3.5913,-3.5928,-3.5977,-3.6005,-3.5992,-3.6023,-3.6057,-3.6097,-3.6145,-3.6183,-3.6266,-3.6272,-3.6315,-3.6302,-3.6374,-3.6308,-3.6311,-3.6301,-3.6297,-3.6302,-3.6386,-3.6388,-3.639,-3.6391,0,-3.597,-3.5966,-3.6008,-3.6051,-3.6085,-3.6118,-3.6147,-3.6174,-3.6163,-3.6199,-3.6251,-3.6281,-3.6339,-3.6387,-3.6429,-3.6441,-3.6414,-3.6412,-3.6429,-3.6433,-3.6432,-3.6432,-3.6219,-3.6407,-3.6405,-3.6404,-3.6403,-3.6402,-3.6089,-3.6135,-3.6159,-3.6207,-3.6228,-3.6256,-3.6299,-3.6305,-3.6348,-3.6395,-3.6385,-3.6443,-3.6468,-3.652,-3.6538,-3.6583,-3.6557,-3.6581,-3.6587,-3.6592,-3.6599,-3.6427,-3.6591,-3.659,-3.659,-3.6589,-3.6589,0,-3.6251,-3.6265,-3.631,-3.6352,-3.639,-3.6363,-3.6394,-3.6428,-3.6479,-3.6505,-3.6543,-3.6603,-3.665,-3.666,-3.6704,-3.6739,-3.6728,-3.6751,-3.6747,-3.675,-3.6621,-3.6601,-3.6759,-3.6759,-3.6759,-3.6759,-3.6759,-3.6759,-3.6339,-3.6414,-3.6413,-3.6498,-3.6511,-3.6568,-3.6588,-3.6614,-3.6634,-3.6703,-3.6742,-3.6748,-3.6767,-3.6813,-3.6855,-3.6856,-3.6873,-3.6901,-3.6898,-3.6776,-3.6759,-3.6743,-3.6724,-3.6906,-3.6906,-3.7023,-3.7024,-3.7025]},{"header":{"parameterUnit":"m.s-1","parameterCategory":1,"la1":30.2991,"la2":30.254,"lo1":-89.0895,"lo2":-89.0444,"dy":0.0017,"dx":0.0017,"nx":28,"ny":28,"refTime":"2024-08-27T09:00:00:Z","depth":0,"parameterNumber":3,"parameterNumberName":"V-component_of_WINDS"},"data":[0,0,0,0,0,0,0,0,0,0,0,0,0,0,0,0,0,0,0,0,0,0,0,0,0,0,0,0,0,0,0,0,0,0,0,0,0,0,0,0,0,0,0,0,0,0,0,0,0,0,0,0,0,0,0,0,0,0,0.4918,0.4918,0,0.4877,0.4876,0.4876,0.4834,0.4834,0.4833,0.4833,0.4789,0.4788,0.4788,0,0,0,0,0,0,0,0,0,0,0,0,0,0.4961,0.496,0.4918,0.4918,0.4917,0.4877,0.4876,0.4876,0.4834,0.4834,0.4833,0.4832,0.4789,0.4789,0.4788,0,0,0,0,0,0,0,0,0,0,0,0,0,0.4933,0.496,0.4918,0.4892,0.4889,0.4877,0.4876,0.4875,0.4834,0.4834,0.4833,0.4832,0.479,0.4789,0.4788,0.4798,0,0,0.4785,0.4784,0,0,0,0,0,0,0,0,0.4935,0.4932,0.4896,0.4894,0.489,0.486,0.4875,0.485,0.4835,0.4855,0.4833,0.4832,0.4813,0.481,0.4804,0.4796,0.4794,0.4785,0.4784,0.4784,0.4783,0,0,0,0,0,0,0,0.4937,0.4933,0.4902,0.4896,0.4892,0.4882,0.4877,0.487,0.4839,0.4853,0.485,0.4846,0.4811,0.4805,0.4803,0.4794,0.4785,0.4784,0.4783,0.4783,0.4792,0.4793,0,0,0,0,0,0,0.4943,0.4935,0.4903,0.49,0.4911,0.4882,0.4876,0.487,0.4839,0.4834,0.4847,0.4844,0.4807,0.4804,0.4801,0.4811,0.4784,0.4783,0.4782,0.4792,0.4793,0.4793,0,0,0,0,0,0,0.4944,0.4941,0.4905,0.4917,0.4912,0.4882,0.4876,0.487,0.4864,0.4834,0.4828,0.4846,0.4807,0.4803,0.4799,0.4809,0.4782,0.4781,0.4791,0.4792,0.4793,0.4832,0,0,0,0,0,0,0.4945,0.4941,0.4945,0.4917,0.4911,0.4904,0.4876,0.487,0.4862,0.4859,0.4832,0.4827,0.4806,0.4801,0.4798,0.4807,0.4781,0.4789,0.4791,0.4793,0.483,0.4834,0.4838,0,0,0,0,0,0.4947,0.4957,0.4945,0.4942,0.4915,0.4904,0.4901,0.4876,0.4863,0.4867,0.4848,0.4828,0.4809,0.4801,0.4798,0.4807,0.4789,0.4791,0.4792,0.4828,0.4833,0.4838,0,0,0,0,0,0,0.4986,0.4953,0.4939,0.4941,0.4926,0.4897,0.4901,0.4883,0.4871,0.4868,0.4838,0.4833,0.4833,0.4819,0.4811,0.4815,0.4796,0.4797,0.4824,0.4829,0.4833,0.4836,0.478,0,0,0,0,0,0.4995,0.4989,0.496,0.4964,0.4958,0.4931,0.4925,0.4908,0.4891,0.4884,0.4865,0.4849,0.4839,0.4834,0.4823,0.4828,0.4821,0.4832,0.4837,0.4841,0.4842,0.4843,0.4848,0.48,0.48,0.48,0,0,0.5012,0.4994,0.4992,0.4972,0.4958,0.4953,0.4926,0.4921,0.4916,0.4883,0.4879,0.4865,0.4845,0.4846,0.4845,0.4835,0.4854,0.4843,0.4846,0.4845,0.4846,0.485,0.4854,0.4801,0.4801,0.48,0,0,0.5042,0.5028,0.5029,0.5017,0.4996,0.4979,0.4979,0.4954,0.4943,0.4939,0.4914,0.4908,0.4892,0.4879,0.4871,0.4897,0.4878,0.4894,0.4917,0.4919,0.4923,0.4926,0.4935,0.4938,0.4896,0.4896,0.4896,0,0.5066,0.5057,0.5032,0.5029,0.5021,0.4992,0.4993,0.4982,0.496,0.4955,0.4943,0.4923,0.4908,0.4905,0.4912,0.4906,0.4906,0.4897,0.4924,0.4927,0.493,0.4938,0.4941,0.4898,0.4898,0.4898,0.4897,0,0.5088,0.5083,0.5087,0.5066,0.5059,0.5058,0.5033,0.5028,0.5012,0.4995,0.4991,0.4972,0.4958,0.4956,0.494,0.4951,0.4945,0.493,0.491,0.4937,0.4944,0.4947,0.4901,0.49,0.49,0.4899,0,0,0.514,0.5106,0.5108,0.5099,0.5075,0.507,0.5068,0.5054,0.5051,0.5037,0.5034,0.5022,0.5008,0.4998,0.4981,0.4982,0.5004,0.4966,0.4965,0.4974,0.5015,0.5027,0.5031,0.4992,0.4993,0.4993,0.5017,0,0.5164,0.516,0.5138,0.5139,0.5133,0.5106,0.5105,0.509,0.5075,0.5068,0.5051,0.5043,0.5025,0.5019,0.502,0.5001,0.5012,0.5,0.4989,0.4989,0.4994,0.5035,0.5046,0.507,0.502,0.502,0.502,0,0.5192,0.5181,0.5182,0.5159,0.5156,0.5155,0.5141,0.5134,0.5117,0.5106,0.5096,0.5077,0.5073,0.5056,0.505,0.5042,0.5037,0.5028,0.5028,0.5025,0.5005,0.5032,0.5077,0.508,0.5025,0.5024,0.5024,0,0.5229,0.5214,0.5212,0.5205,0.5178,0.5178,0.5167,0.515,0.5143,0.5131,0.5126,0.5114,0.5107,0.5098,0.5075,0.5064,0.5073,0.5053,0.5063,0.5064,0.5065,0.5065,0.5108,0.5063,0.5063,0.5063,0.5063,0,0.5258,0.526,0.5228,0.5228,0.5229,0.5204,0.5206,0.5192,0.5177,0.5172,0.5149,0.5145,0.5117,0.511,0.5093,0.5091,0.5088,0.5079,0.5074,0.5081,0.5082,0.5076,0.5073,0.5064,0.5064,0.5064,0.5063,0,0.5299,0.5278,0.5275,0.525,0.5244,0.5246,0.5225,0.5223,0.5207,0.5202,0.52,0.5175,0.5166,0.5143,0.5128,0.5117,0.5119,0.5111,0.5125,0.5122,0.5133,0.5132,0.5173,0.5177,0.5131,0.5131,0.5132,0,0.5318,0.5319,0.5295,0.5291,0.5281,0.5275,0.5268,0.5244,0.5238,0.5219,0.522,0.5209,0.5199,0.5186,0.5166,0.5155,0.5146,0.5161,0.5144,0.515,0.5145,0.5145,0.5145,0.5165,0.5165,0.5166,0.5166,0,0.5356,0.5345,0.5337,0.5325,0.5318,0.5307,0.5295,0.5293,0.5266,0.5261,0.5252,0.5244,0.523,0.5219,0.5205,0.5193,0.5175,0.5172,0.5174,0.518,0.5188,0.5183,0.5135,0.5171,0.517,0.517,0.517,0.517,0.5385,0.5385,0.5368,0.536,0.5349,0.5338,0.5335,0.532,0.5312,0.5298,0.5284,0.5277,0.5261,0.524,0.5229,0.5223,0.5214,0.5216,0.5217,0.5217,0.522,0.519,0.5221,0.522,0.522,0.522,0.522,0,0.5421,0.5409,0.5402,0.5386,0.5379,0.5364,0.535,0.5346,0.5339,0.5326,0.5317,0.5307,0.5297,0.5277,0.5266,0.5265,0.5256,0.5262,0.5262,0.5259,0.5229,0.5229,0.5269,0.5269,0.5269,0.5269,0.5269,0.5269,0.5438,0.5437,0.5425,0.5417,0.5405,0.5398,0.5392,0.5382,0.5371,0.5361,0.5353,0.534,0.5324,0.5312,0.5302,0.5296,0.5293,0.5302,0.5294,0.5266,0.5261,0.5257,0.5256,0.5302,0.5302,0.5324,0.5324,0.5324]}]]